Regional Weather Roundup
Issued by NWS Northern Indiana

Home | Current Version | Previous Version | Text Only | Print | Product List | Glossary Off
Versions: 1 2 3 4 5 6 7 8 9 10 11 12 13 14 15 16 17 18 19 20 21 22 23 24 25 26 27 28 29 30 31 32 33 34 35 36 37 38 39 40 41 42 43 44 45 46 47 48 49 50

714
ASUS43 KIWX 291410
RWRIWX

KIWX WEATHER ROUNDUP
NATIONAL WEATHER SERVICE NORTHERN INDIANA
1000 AM EDT MON AUG 29 2016

NOTE: "FAIR" INDICATES FEW OR NO CLOUDS BELOW 12,000 FEET WITH NO
SIGNIFICANT WEATHER AND/OR OBSTRUCTIONS TO VISIBILITY.

* THESE STATIONS ARE NOT UNDER NWS QUALITY CONTROL. THEY ALSO MAY NOT
  REPORT WEATHER SUCH AS PRECIPITATION OR FOG.

INZ001>027-291500-
NORTHERN INDIANA

CITY           SKY/WX    TMP DP  RH WIND       PRES   REMARKS
GARY*          MOSUNNY   79  73  83 E7        30.25R
VALPARAISO     MOSUNNY   76  70  82 E10       30.26R
MICHIGAN CITY* SUNNY     75  75 100 MISG      30.26S
LAPORTE*       MOSUNNY  N/A N/A N/A E5        30.27S
KNOX*          SUNNY     73  54  49 E5        30.25S
SOUTH BEND     SUNNY     75  69  81 E7        30.27R
ELKHART*       SUNNY    N/A N/A N/A SE6       30.26R
GOSHEN         SUNNY     75  69  81 E9        30.27R
MONTICELLO*    SUNNY     76  67  75 SE3       30.24S
LOGANSPORT*    SUNNY     73  70  88 E7        30.26S
ROCHESTER*     SUNNY     77  72  83 E5        30.26S
WARSAW*        PTSUNNY   73  73 100 E8        30.26S
ANGOLA*        MOSUNNY   73  72  94 SE8       30.27S
FORT WAYNE     FOG       72  69  90 E8        30.27S VSB 1
HUNTINGTON*    PTSUNNY   75  73  92 NE5       30.26S
PERU/GRISSOM   SUNNY     75  70  86 SE9       30.25R
MARION*        MOSUNNY   73  69  87 E7        30.26R

$$
INZ028>050-291500-
CENTRAL INDIANA

CITY           SKY/WX    TMP DP  RH WIND       PRES   REMARKS
LAFAYETTE      MOSUNNY   74  71  91 SE6       30.24S
KOKOMO*        PTSUNNY   73  70  88 E6        30.26R
MUNCIE*        MOSUNNY   77  70  79 E6        30.26R
INDIANAPOLIS   MOSUNNY   77  68  73 E3        30.24S

$$
MIZ043>046-050>051-056>058-064>065-071>073-077>080-291500-
SOUTHWEST LOWER MICHIGAN

CITY           SKY/WX    TMP DP  RH WIND       PRES   REMARKS
BATTLE CREEK   CLOUDY    73  67  81 E7        30.28S
BENTON HARBOR  SUNNY     77  69  76 SE7       30.25S
COLDWATER*     SUNNY     74  68  82 E10       30.28S
HILLSDALE*     SUNNY     74  67  79 E7        30.28F
HOLLAND        MOSUNNY   75  69  81 E6        30.27R
GRAND RAPIDS   MOSUNNY   72  67  84 E8        30.28S
KALAMAZOO      SUNNY     76  68  76 E7        30.27S
STURGIS*       MOSUNNY   74  69  85 E7        30.26S
THREE RIVERS*  FAIR      74  74 100 SE5       30.27S

$$
OHZ001>008-015>018-024>025-291500-
NORTHWEST OHIO

CITY           SKY/WX    TMP DP  RH WIND       PRES   REMARKS
WAUSEON*       FAIR      75  70  83 E9        30.27S
DEFIANCE       MOSUNNY   76  71  85 E7        30.27R
FINDLAY        MOSUNNY   78  71  79 E10       30.25S
TOLEDO EXPRESS SUNNY     76  70  82 E12       30.27R
TOLEDO METCALF PTSUNNY   77  71  82 NE9       30.27S
LIMA           MOSUNNY   76  73  91 E10       30.27R

$$
AND FOR LAKE MICHIGAN COASTAL AND OPEN LAKE BUOY OBSERVATIONS

STATION/POSITION TEMP    WIND        PRES    VSBY  WAVE
                 AIR SEA DIR/SP/G                  HT/PER
                 (F)     (DEG/KT/KT) (MB)    (MI)  (FT/S)
CALUMET HARBOR    74      50/  5/  7 1023.3R
MICHIGAN CITY     71      60/  4/  5   N/A
BURNS HARBOR      73      70/  6/ 10 1024.4R
SAINT JOSEPH      76     200/  3/  5 1024.4S
SOUTH LAKE BUOY   74 75   90/  6/  6 1023.7R         0
4 MI NW BRIDGMAN  75 75  130/  8/ 10 1024.0F         1
MICHIGAN CITY     74 76   90/  6/  8   N/A           1/ 3

$$
&&




USA.gov is the U.S. government's official web portal to all federal, state and local government web resources and services.